User: anonymous   Login
Location: Bakersfield
(35.3730°N, 119.0180°W)
Time: 14:19:06
(UTC-07:00)
Language:

Cosmos 1222 Rocket - Orbit

View from above orbital plane
View from above orbital plane
View from above satellite
View from above satellite

Ground track
Ground track

The orbit data is extracted from the following two-line orbital elements,

1 12072U 80093B   15091.48126850  .00424572  79616-4  68931-3 0  9999
2 12072 081.1658 323.8813 0003895 057.4583 302.7068 16.03356169891338
Epoch (UTC): 01 April 2015 11:33:01
Eccentricity: 0.0003895
inclination: 81.1658°
perigee height: 262 km
apogee height: 268 km
right ascension of ascending node: 323.8813°
argument of perigee: 57.4583°
revolutions per day: 16.03356169
mean anomaly at epoch: 302.7068°
orbit number at epoch: 89133

The dashed part of the orbit path shows where the satellite is in the earth's shadow,  

DLR